Theta_e
312 313 313 310 306 312 306 307 302 305 308 314 321 325 328 330 334 336 339 340 340 342 344 345 348 351 352 354 358 360 359 362
310 311 311 311 314 305 306 298 298 303 304 309 316 321 324 328 330 334 339 341 342 344 344 346 348 349 352 354 357 359 358 360
309 308 309 308 308 309 308 305 300 300 305 315 320 323 323 326 329 332 333 335 337 339 344 346 348 350 351 352 354 356 357 359
307 311 312 313 311 311 304 304 305 304 306 322 325 325 325 327 329 331 333 334 337 339 343 344 346 349 350 352 352 354 356 359
306 310 311 310 311 311 310 310 305 302 306 324 327 331 334 332 332 333 334 335 337 340 342 344 346 352 352 353 353 354 356 356
304 308 313 309 309 310 310 306 307 306 310 322 326 331 335 338 339 340 339 337 338 340 341 345 349 354 355 355 355 356 357 356
313 313 312 312 310 308 309 310 307 310 310 324 330 333 337 340 341 344 346 347 349 347 348 346 349 353 355 357 364 363 361 360
310 313 313 311 311 308 308 310 314 313 317 330 335 336 334 335 337 338 340 342 349 354 356 350 347 351 355 358 361 362 361 360
308 312 311 308 313 316 317 320 317 313 325 332 332 331 333 333 333 334 335 335 337 344 349 356 348 351 354 358 361 361 362 357
310 311 302 314 322 320 317 320 322 323 328 330 332 333 332 332 333 334 336 338 340 338 343 352 356 351 356 358 359 359 358 356
307 307 310 312 318 318 316 314 324 322 328 329 331 332 333 332 333 334 336 339 340 341 342 356 358 360 358 358 358 358 356 357
311 305 302 312 320 325 323 311 325 328 327 326 330 321 326 331 334 335 337 341 342 344 345 345 358 361 361 360 360 358 360 361
310 308 311 319 323 326 310 315 328 330 330 328 325 327 330 334 335 338 340 339 345 347 350 353 363 361 360 361 360 363 364 365
312 309 306 321 323 317 325 331 330 333 331 328 329 331 332 333 335 337 338 338 344 348 351 355 362 362 361 361 365 367 366 363
315 316 324 326 326 329 328 330 333 334 332 330 328 328 331 332 333 334 336 338 344 349 348 350 355 359 357 363 367 364 364 351
318 322 324 326 328 329 330 329 331 332 332 331 328 329 329 330 331 333 335 336 340 345 347 349 353 355 358 361 361 360 351 343
318 323 325 326 328 329 328 330 330 330 330 329 329 329 330 331 332 334 336 337 340 344 349 351 353 355 357 358 356 352 345 339
314 322 323 325 329 329 329 329 330 330 331 333 332 331 332 332 334 336 337 340 341 342 347 350 352 355 354 355 355 349 341 337
321 326 326 329 331 328 329 330 330 331 332 331 332 332 332 332 335 332 337 338 340 343 347 350 354 351 353 354 353 348 343 338
Wind_Speed
7 10 9 11 9 6 11 4 8 9 2 8 4 10 7 7 7 7 7 8 11 14 16 17 17 17 17 16 17 17 17 14
9 7 5 8 7 10 9 5 7 4 5 3 8 9 8 7 8 8 6 6 8 9 12 14 16 16 17 16 16 16 16 14
9 12 14 8 10 8 7 6 7 4 5 9 9 7 7 8 4 4 3 6 6 7 8 10 12 13 16 16 15 15 16 15
9 5 6 9 15 14 7 11 2 8 3 9 9 10 8 8 5 5 1 1 5 6 7 9 11 13 14 14 15 16 16 14
10 8 6 10 8 8 7 3 6 8 9 5 9 10 9 8 6 7 3 4 4 6 6 7 10 12 14 15 15 15 15 16
6 9 4 6 6 9 12 8 8 7 11 10 8 9 10 10 9 8 6 5 5 3 6 8 9 12 13 14 14 14 15 16
6 6 1 3 4 8 12 3 6 10 3 8 8 10 10 10 10 10 9 9 8 6 3 5 9 12 12 13 13 12 12 11
5 3 3 4 3 7 6 4 3 3 10 6 8 9 11 10 11 10 9 9 9 8 6 0 9 11 12 12 13 13 15 14
7 2 5 9 7 3 5 2 3 6 12 6 7 6 8 7 6 5 5 5 6 8 8 7 4 9 11 12 13 15 16 13
5 6 9 10 5 1 4 2 3 3 6 4 4 5 7 6 5 5 6 6 5 5 7 7 4 5 8 10 13 13 14 11
5 11 2 6 6 6 8 8 7 6 7 6 4 4 6 4 5 6 6 6 4 6 6 2 4 3 6 10 14 15 16 13
7 10 6 2 10 4 3 10 12 7 8 7 7 8 8 5 6 6 7 7 7 6 5 5 3 4 6 9 12 15 15 15
9 10 6 9 6 6 11 1 6 9 7 5 5 6 5 4 4 6 7 9 9 7 6 2 1 5 6 8 10 10 12 13
10 7 12 4 7 11 5 2 4 7 6 4 3 2 0 3 4 6 8 10 10 9 6 3 3 5 7 8 8 8 9 7
4 5 4 2 5 3 5 4 5 7 7 5 5 3 1 3 4 6 7 8 8 8 9 5 3 5 7 7 6 8 9 9
3 5 3 1 4 2 1 2 5 7 8 7 5 3 4 6 7 7 7 7 8 9 10 10 7 7 7 5 6 5 7 8
5 2 2 4 2 0 1 2 4 4 5 6 6 6 5 7 8 8 10 9 8 9 10 10 8 7 6 5 3 6 8 9
4 7 7 4 4 1 3 5 7 7 9 9 8 8 8 8 7 8 10 11 11 12 11 9 7 6 5 3 4 6 7 7
7 6 6 7 4 2 2 2 3 6 7 8 8 9 9 9 9 9 11 12 12 13 12 7 5 3 2 3 5 7 8 7
Wind_Direction
197 203 253 158 230 284 290 239 270 275 249 258 70 51 66 60 98 117 149 174 191 199 199 202 201 200 200 192 195 196 197 196
153 181 196 276 174 203 223 275 268 143 246 50 36 40 38 71 91 103 130 161 188 197 211 203 208 195 196 200 198 194 195 197
165 208 185 182 216 239 319 313 300 244 134 53 40 43 53 65 66 103 135 166 193 194 196 215 208 203 197 199 195 197 199 195
161 101 294 230 235 218 227 175 250 314 28 60 63 70 62 59 62 69 66 222 178 182 180 192 190 194 196 200 198 200 198 192
151 154 157 214 199 247 250 312 163 280 104 83 82 75 66 61 71 84 89 135 145 158 166 186 181 191 193 196 199 199 195 196
130 68 95 176 194 223 231 227 155 238 117 85 74 74 74 70 64 58 61 84 78 164 167 189 184 193 194 196 200 200 196 205
74 79 141 292 212 194 228 329 275 100 110 81 90 80 68 75 68 54 50 54 56 49 86 195 191 195 198 194 200 191 190 216
97 139 210 171 153 183 204 240 206 185 115 82 122 108 95 79 76 75 58 45 38 33 23 52 198 202 195 192 193 187 191 204
128 173 217 207 157 146 123 190 322 202 85 140 124 93 90 87 72 53 20 18 6 356 24 16 212 201 194 192 192 196 202 225
105 184 230 76 77 306 273 186 201 123 130 131 117 123 115 83 58 54 37 5 2 355 356 352 341 202 194 192 205 211 207 216
209 219 89 174 181 201 225 212 190 164 151 160 167 175 167 71 54 37 28 14 358 337 340 328 295 252 207 195 200 209 213 213
189 275 242 287 130 184 216 248 173 199 175 174 177 233 95 29 10 11 16 6 351 333 287 305 263 203 207 212 211 216 217 208
204 242 249 95 146 181 221 60 169 189 179 181 225 22 49 339 334 343 342 347 357 7 44 353 251 232 234 233 232 221 219 211
243 260 239 128 147 228 14 52 138 159 161 172 160 154 214 288 318 330 333 338 341 344 353 343 192 238 258 255 255 234 224 198
319 32 60 296 22 21 320 137 146 162 171 183 189 199 224 298 314 318 318 319 317 319 317 326 341 309 293 293 266 241 228 153
275 82 17 29 190 253 229 282 160 164 173 195 205 236 289 295 294 299 310 311 313 308 308 317 344 336 316 304 286 220 160 167
255 94 173 140 180 131 222 244 206 191 216 229 249 264 290 298 301 303 311 313 316 304 296 299 326 327 330 327 235 188 175 172
308 43 331 41 69 16 261 231 237 239 239 247 262 272 284 289 304 309 309 309 305 303 293 301 323 334 342 316 179 177 168 182
309 352 326 312 292 319 274 335 250 253 255 268 265 271 277 296 300 314 296 299 295 293 287 291 290 307 284 163 165 173 177 179